Steamboat Springs, CO

6:12 PM MDT on April 27, 2017 (GMT -0600)
Steamboat Springs-Adams

Weather History for KSBS - January, 2013

Change the Weather History Date:

Tuesday, January 15, 2013

  Actual Average Record
Temperature  
Mean Temperature -7 °F -  
Max Temperature 8 °F 30 °F 48 °F (1913)
Min Temperature -22 °F 6 °F -25 °F (1964)
Degree Days  
Heating Degree Days 72    
Moisture  
Dew Point -13 °F    
Average Humidity 69    
Maximum Humidity 79    
Minimum Humidity 54    
Precipitation  
Precipitation 0.00 in - - ()
Sea Level Pressure  
Sea Level Pressure 30.25 in    
Wind  
Wind Speed 0 mph (ESE)    
Max Wind Speed 4 mph    
Max Gust Speed -    
Visibility 9 miles    
Events      
Averages and records for this station are not official NWS values.
T = Trace of Precipitation, MM = Missing Value Source: NWS Daily Summary

Daily Weather History Graph

Daily Weather History Graph

Search for Another Location

Airport or City:

Trip Planner

Search our weather history database for the weather conditions in past years. The results will help you decide how hot, cold, wet, or windy it might be!

Date:

Astronomy

Jan. 15, 2013 Rise Set
Actual Time 7:28 AM MST 5:05 PM MST
Civil Twilight 6:58 AM MST 5:35 PM MST
Nautical Twilight 6:25 AM MST 6:09 PM MST
Astronomical Twilight 5:52 AM MST 6:42 PM MST
Moon 9:34 AM MST (1/15) 9:59 PM MST (1/15)
Length of Visible Light 10h 36m
Length of Day
9h 37m
Waxing Crescent, 20% of the Moon is Illuminated
Jan 15
Waxing Crescent
Jan 18
First Quarter
Jan 26
Full
Feb 3
Last Quarter
Feb 10
New

Hourly Weather History & Observations

Time (MST) Temp. Windchill Dew Point Humidity Pressure Visibility Wind Dir Wind Speed Gust Speed Precip Events Conditions
12:15 AM -18.6 °F - -24.0 °F 76% 30.13 in 10.0 mi Calm Calm - N/A   Mostly Cloudy
12:35 AM -17.9 °F - -22.9 °F 78% 30.14 in 10.0 mi Calm Calm - N/A   Overcast
12:55 AM -17.5 °F - -22.5 °F 78% 30.14 in 10.0 mi Calm Calm - N/A   Scattered Clouds
1:15 AM -17.9 °F - -23.3 °F 76% 30.14 in 10.0 mi Calm Calm - N/A   Clear
1:35 AM -19.7 °F - -25.8 °F 73% 30.14 in 10.0 mi Calm Calm - N/A   Clear
1:55 AM -20.6 °F - -26.5 °F 74% 30.15 in 10.0 mi Calm Calm - N/A   Clear
2:15 AM -20.6 °F - -26.3 °F 75% 30.16 in 10.0 mi Calm Calm - N/A   Clear
2:35 AM -20.2 °F - -26.0 °F 75% 30.17 in 10.0 mi Calm Calm - N/A   Clear
2:55 AM -18.9 °F - -24.7 °F 75% 30.17 in 10.0 mi Calm Calm - N/A   Mostly Cloudy
3:15 AM -19.7 °F - -26.1 °F 72% 30.18 in 10.0 mi Calm Calm - N/A   Overcast
3:55 AM -20.2 °F - -27.0 °F 71% 30.18 in 10.0 mi Calm Calm - N/A   Overcast
4:15 AM -18.4 °F - -24.7 °F 73% 30.18 in 10.0 mi Calm Calm - N/A   Overcast
4:35 AM -18.4 °F - -24.7 °F 73% 30.18 in 10.0 mi Calm Calm - N/A   Overcast
4:55 AM -22.0 °F - -29.0 °F 70% 30.19 in 10.0 mi Calm Calm - N/A   Overcast
5:15 AM -19.7 °F - -26.0 °F 73% 30.19 in 7.0 mi Calm Calm - N/A   Overcast
5:35 AM -18.4 °F - -24.9 °F 72% 30.20 in 7.0 mi Calm Calm - N/A   Overcast
5:55 AM -17.3 °F - -24.2 °F 71% 30.20 in 7.0 mi Calm Calm - N/A   Overcast
6:15 AM -18.4 °F - -25.1 °F 72% 30.20 in 7.0 mi Calm Calm - N/A   Overcast
6:35 AM -19.3 °F - -26.5 °F 70% 30.20 in 7.0 mi Calm Calm - N/A   Overcast
6:55 AM -16.8 °F - -23.4 °F 72% 30.21 in 10.0 mi Calm Calm - N/A   Overcast
7:15 AM -15.2 °F - -21.6 °F 73% 30.22 in 10.0 mi Calm Calm - N/A   Overcast
7:35 AM -14.6 °F - -21.1 °F 73% 30.24 in 10.0 mi Calm Calm - N/A   Overcast
7:55 AM -14.3 °F - -20.9 °F 72% 30.24 in 10.0 mi Calm Calm - N/A   Overcast
8:15 AM -14.8 °F - -21.6 °F 71% 30.24 in 10.0 mi Calm Calm - N/A   Overcast
8:35 AM -13.9 °F - -20.4 °F 73% 30.26 in 10.0 mi Calm Calm - N/A   Overcast
8:55 AM -11.6 °F - -18.4 °F 72% 30.27 in 10.0 mi Calm Calm - N/A   Overcast
9:15 AM -9.4 °F - -16.6 °F 71% 30.26 in 10.0 mi Calm Calm - N/A   Overcast
9:35 AM -9.4 °F - -16.6 °F 71% 30.27 in 7.0 mi Calm Calm - N/A   Overcast
9:55 AM -8.0 °F - -15.5 °F 70% 30.27 in 5.0 mi Calm Calm - N/A   Overcast
10:15 AM -6.7 °F - -15.5 °F 66% 30.26 in 5.0 mi Calm Calm - N/A   Overcast
10:35 AM -5.4 °F - -15.0 °F 63% 30.27 in 7.0 mi Calm Calm - N/A   Overcast
10:55 AM -2.2 °F - -13.9 °F 58% 30.25 in 7.0 mi Calm Calm - N/A   Overcast
11:15 AM -1.3 °F - -13.2 °F 57% 30.25 in 7.0 mi Calm Calm - N/A   Overcast
11:35 AM -0.6 °F - -12.1 °F 58% 30.26 in 7.0 mi Calm Calm - N/A   Overcast
11:55 AM 0.9 °F - -11.7 °F 56% 30.25 in 10.0 mi Calm Calm - N/A   Overcast
12:35 PM 2.3 °F - -9.9 °F 57% 30.24 in 10.0 mi Calm Calm - N/A   Overcast
12:55 PM 3.0 °F - -9.2 °F 57% 30.24 in 10.0 mi Calm Calm - N/A   Overcast
1:15 PM 2.8 °F - -8.7 °F 59% 30.24 in 10.0 mi Calm Calm - N/A   Overcast
1:35 PM 3.2 °F - -8.5 °F 58% 30.24 in 10.0 mi Calm Calm - N/A   Overcast
1:55 PM 3.7 °F - -8.5 °F 57% 30.24 in 10.0 mi Calm Calm - N/A   Overcast
2:15 PM 4.6 °F - -7.1 °F 58% 30.24 in 10.0 mi Calm Calm - N/A   Overcast
2:35 PM 5.5 °F - -6.5 °F 58% 30.25 in 10.0 mi Calm Calm - N/A   Overcast
2:55 PM 7.9 °F - -5.8 °F 54% 30.26 in 10.0 mi Calm Calm - N/A   Overcast
3:15 PM 8.2 °F - -4.0 °F 58% 30.26 in 10.0 mi Calm Calm - N/A   Overcast
3:35 PM 7.9 °F - -3.5 °F 60% 30.26 in 10.0 mi Calm Calm - N/A   Overcast
3:55 PM 4.5 °F - -5.1 °F 65% 30.26 in 10.0 mi Calm Calm - N/A   Overcast
4:15 PM 5.0 °F - -4.4 °F 65% 30.27 in 10.0 mi Calm Calm - N/A   Overcast
4:35 PM 5.2 °F - -4.2 °F 65% 30.27 in 10.0 mi Calm Calm - N/A   Overcast
4:55 PM 5.0 °F - -3.8 °F 67% 30.29 in 10.0 mi Calm Calm - N/A   Overcast
5:15 PM 3.7 °F - -4.2 °F 70% 30.29 in 10.0 mi Calm Calm - N/A   Overcast
5:35 PM 5.9 °F - -1.8 °F 70% 30.29 in 10.0 mi Calm Calm - N/A   Overcast
5:55 PM 5.5 °F -1.5 °F -2.0 °F 71% 30.29 in 10.0 mi East 3.5 mph - N/A   Overcast
6:15 PM 6.4 °F - -1.5 °F 70% 30.29 in 10.0 mi Calm Calm - N/A   Overcast
6:35 PM 4.3 °F - -3.3 °F 71% 30.30 in 10.0 mi Calm Calm - N/A   Overcast
6:55 PM 4.6 °F - -2.9 °F 71% 30.31 in 10.0 mi Calm Calm - N/A   Overcast
7:15 PM 6.1 °F - -1.5 °F 71% 30.31 in 10.0 mi Calm Calm - N/A   Overcast
7:35 PM 4.6 °F - -2.2 °F 73% 30.32 in 10.0 mi Calm Calm - N/A   Overcast
7:55 PM 6.1 °F - -1.5 °F 71% 30.31 in 10.0 mi Calm Calm - N/A   Overcast
8:15 PM 6.4 °F - -1.3 °F 71% 30.32 in 10.0 mi Calm Calm - N/A   Overcast
8:35 PM 5.0 °F - -1.7 °F 74% 30.32 in 10.0 mi Calm Calm - N/A   Overcast
8:55 PM 7.5 °F - -0.2 °F 71% 30.34 in 10.0 mi Calm Calm - N/A   Overcast
9:15 PM 7.9 °F 1.2 °F 0.3 °F 71% 30.34 in 10.0 mi ESE 3.5 mph - N/A   Overcast
9:35 PM 6.6 °F - -0.4 °F 73% 30.34 in 10.0 mi Calm Calm - N/A   Overcast
9:55 PM 6.3 °F - -0.4 °F 74% 30.34 in 10.0 mi Calm Calm - N/A   Overcast
10:15 PM 6.8 °F - 0.3 °F 75% 30.35 in 10.0 mi Calm Calm - N/A   Overcast
10:35 PM 6.3 °F - 0.1 °F 76% 30.35 in 10.0 mi Calm Calm - N/A   Overcast
11:15 PM 5.9 °F - -0.0 °F 77% 30.37 in 7.0 mi Calm Calm - N/A   Overcast
11:35 PM 6.3 °F - 0.7 °F 78% 30.38 in 5.0 mi Calm Calm - N/A   Overcast
11:55 PM 6.8 °F -0.1 °F 1.4 °F 79% 30.39 in 3.0 mi East 3.5 mph - N/A   Overcast